When you browse on this site, cookies collect data to enhance your experience and personalize the content and advertising you see.
Visit our Privacy Policy to learn more. By continuing to use the site, you agree to this use of cookies and data.
  • In Hungary
  • List of Countries
  • For 7 days
  • Water Temperature
  • Satellite Maps
  • Weather Map
  • News
  • Weather Widgets
  • user-avatar
    Login

    Hourly Weather Sentyanіvka (Frunze)

    Today, 21 July, Sunday

    Time Temperature Precipitation Wind Pressure Humidity
    00:00 +20°C° 0 mm 0 mps 757 mmHg 49%
    01:00 +20°C° 0 mm 0 mps 757 mmHg 52%
    02:00 +19°C° 0 mm 0 mps 757 mmHg 54%
    03:00 +19°C° 0 mm 0 mps 757 mmHg 57%
    04:00 +19°C° 0 mm 0 mps 757 mmHg 58%
    05:00 +19°C° 0 mm 0 mps 757 mmHg 58%
    06:00 +20°C° 0 mm 0 mps 757 mmHg 59%
    07:00 +22°C° 0 mm 0 mps 757 mmHg 53%
    08:00 +24°C° 0 mm 0 mps 757 mmHg 47%
    09:00 +26°C° 0 mm 0 mps 757 mmHg 41%
    10:00 +29°C° 0 mm 1 mps 757 mmHg 38%
    11:00 +30°C° 0 mm 1 mps 757 mmHg 35%
    12:00 +31°C° 0 mm 1 mps 757 mmHg 32%
    13:00 +31°C° 0 mm 1 mps 757 mmHg 32%
    14:00 +31°C° 0 mm 2 mps 756 mmHg 33%
    15:00 +31°C° 0 mm 2 mps 756 mmHg 33%
    16:00 +30°C° 0 mm 2 mps 756 mmHg 35%
    17:00 +30°C° 0 mm 2 mps 756 mmHg 37%
    18:00 +30°C° 0 mm 3 mps 756 mmHg 39%
    19:00 +28°C° 0 mm 2 mps 756 mmHg 44%
    20:00 +26°C° 0 mm 2 mps 756 mmHg 48%
    21:00 +25°C° 0 mm 1 mps 756 mmHg 53%
    22:00 +24°C° 0 mm 1 mps 756 mmHg 54%
    23:00 +23°C° 0 mm 1 mps 756 mmHg 56%

    Tomorrow, 22 July, Monday

    Time Temperature Precipitation Wind Pressure Humidity
    00:00 +21°C° 0 mm 0 mps 756 mmHg 58%
    01:00 +20°C° 0 mm 0 mps 756 mmHg 60%
    02:00 +20°C° 0 mm 0 mps 756 mmHg 62%
    03:00 +19°C° 0 mm 0 mps 756 mmHg 64%
    04:00 +19°C° 0 mm 0 mps 756 mmHg 65%
    05:00 +20°C° 0 mm 0 mps 756 mmHg 65%
    06:00 +20°C° 0 mm 0 mps 756 mmHg 66%
    07:00 +22°C° 0 mm 0 mps 756 mmHg 60%
    08:00 +24°C° 0 mm 0 mps 756 mmHg 54%
    09:00 +26°C° 0 mm 0 mps 756 mmHg 47%
    10:00 +29°C° 0 mm 1 mps 756 mmHg 44%
    11:00 +30°C° 0 mm 1 mps 756 mmHg 40%
    12:00 +31°C° 0 mm 1 mps 756 mmHg 37%
    13:00 +31°C° 0 mm 1 mps 755 mmHg 35%
    14:00 +32°C° 0 mm 1 mps 755 mmHg 33%
    15:00 +32°C° 0 mm 2 mps 755 mmHg 32%
    16:00 +32°C° 0 mm 2 mps 755 mmHg 33%
    17:00 +32°C° 0 mm 2 mps 754 mmHg 35%
    18:00 +31°C° 0 mm 2 mps 754 mmHg 36%
    19:00 +30°C° 0 mm 1 mps 754 mmHg 40%
    20:00 +28°C° 0 mm 1 mps 754 mmHg 44%
    21:00 +26°C° 0 mm 1 mps 754 mmHg 48%
    22:00 +26°C° 0 mm 1 mps 754 mmHg 49%
    23:00 +26°C° 0 mm 1 mps 754 mmHg 49%

    Day after tomorrow, 23 July, Tuesday

    Time Temperature Precipitation Wind Pressure Humidity
    00:00 +25°C° 0 mm 2 mps 754 mmHg 50%
    01:00 +24°C° 0 mm 2 mps 753 mmHg 52%
    02:00 +24°C° 0 mm 2 mps 753 mmHg 54%
    03:00 +23°C° 0 mm 2 mps 753 mmHg 55%
    04:00 +23°C° 0 mm 2 mps 753 mmHg 58%
    05:00 +23°C° 0 mm 2 mps 752 mmHg 62%
    06:00 +23°C° 0 mm 2 mps 752 mmHg 65%
    07:00 +25°C° 0 mm 2 mps 752 mmHg 58%
    08:00 +28°C° 0 mm 3 mps 752 mmHg 52%
    09:00 +30°C° 0 mm 4 mps 752 mmHg 45%
    10:00 +32°C° 0 mm 4 mps 752 mmHg 43%
    11:00 +32°C° 0 mm 4 mps 752 mmHg 40%
    12:00 +33°C° 0 mm 4 mps 752 mmHg 37%
    13:00 +33°C° 0 mm 5 mps 751 mmHg 38%
    14:00 +32°C° 0 mm 5 mps 751 mmHg 39%
    15:00 +32°C° 0 mm 5 mps 751 mmHg 40%
    16:00 +30°C° 0 mm 4 mps 751 mmHg 47%
    17:00 +28°C° 0 mm 4 mps 751 mmHg 53%
    18:00 +27°C° 0 mm 3 mps 751 mmHg 60%
    19:00 +26°C° 0 mm 3 mps 751 mmHg 64%
    20:00 +25°C° 0 mm 2 mps 751 mmHg 68%
    21:00 +24°C° 0 mm 1 mps 751 mmHg 72%
    22:00 +24°C° 0.3 mm 1 mps 751 mmHg 74%
    23:00 +23°C° 0.3 mm 1 mps 751 mmHg 76%

    24 July, Wednesday

    Time Temperature Precipitation Wind Pressure Humidity
    00:00 +21°C° 0.3 mm 0 mps 751 mmHg 78%
    01:00 +22°C° 0.7 mm 1 mps 751 mmHg 81%
    02:00 +22°C° 0.7 mm 1 mps 751 mmHg 85%
    03:00 +21°C° 0.7 mm 1 mps 751 mmHg 88%
    04:00 +20°C° 0.9 mm 2 mps 750 mmHg 89%
    05:00 +20°C° 0.9 mm 2 mps 750 mmHg 90%
    06:00 +20°C° 0.9 mm 2 mps 750 mmHg 91%
    07:00 +21°C° 0.2 mm 2 mps 750 mmHg 87%
    08:00 +23°C° 0.2 mm 2 mps 750 mmHg 83%
    09:00 +24°C° 0.2 mm 2 mps 750 mmHg 79%
    10:00 +24°C° 0.5 mm 2 mps 750 mmHg 78%
    11:00 +24°C° 0.5 mm 3 mps 750 mmHg 77%
    12:00 +24°C° 0.5 mm 3 mps 750 mmHg 76%
    13:00 +25°C° 0.7 mm 3 mps 749 mmHg 72%
    14:00 +26°C° 0.7 mm 3 mps 749 mmHg 67%
    15:00 +27°C° 0.7 mm 3 mps 749 mmHg 63%
    16:00 +26°C° 0.7 mm 4 mps 749 mmHg 68%
    17:00 +26°C° 0.7 mm 4 mps 749 mmHg 72%
    18:00 +25°C° 0.7 mm 4 mps 748 mmHg 77%
    19:00 +23°C° 1.7 mm 5 mps 749 mmHg 81%
    20:00 +22°C° 1.7 mm 5 mps 749 mmHg 86%
    21:00 +20°C° 1.7 mm 5 mps 749 mmHg 90%
    22:00 +20°C° 0.3 mm 4 mps 749 mmHg 92%
    23:00 +20°C° 0.3 mm 3 mps 749 mmHg 93%

    25 July, Thursday

    Time Temperature Precipitation Wind Pressure Humidity
    00:00 +19°C° 0.3 mm 2 mps 749 mmHg 95%
    01:00 +19°C° 0.1 mm 2 mps 749 mmHg 96%
    02:00 +19°C° 0.1 mm 2 mps 749 mmHg 96%
    03:00 +18°C° 0.1 mm 2 mps 749 mmHg 96%
    04:00 +18°C° 0 mm 2 mps 749 mmHg 94%
    05:00 +18°C° 0 mm 2 mps 749 mmHg 92%
    06:00 +18°C° 0 mm 3 mps 749 mmHg 90%
    07:00 +19°C° 0 mm 3 mps 750 mmHg 83%
    08:00 +20°C° 0 mm 2 mps 750 mmHg 77%
    09:00 +21°C° 0 mm 2 mps 750 mmHg 71%
    10:00 +23°C° 0 mm 2 mps 750 mmHg 64%
    11:00 +25°C° 0 mm 3 mps 750 mmHg 56%
    12:00 +27°C° 0 mm 3 mps 750 mmHg 49%
    13:00 +27°C° 0 mm 3 mps 750 mmHg 47%
    14:00 +28°C° 0 mm 3 mps 750 mmHg 45%
    15:00 +29°C° 0 mm 3 mps 750 mmHg 43%
    16:00 +28°C° 0 mm 3 mps 750 mmHg 46%
    17:00 +28°C° 0 mm 2 mps 750 mmHg 49%
    18:00 +27°C° 0 mm 2 mps 750 mmHg 51%
    19:00 +25°C° 0.1 mm 2 mps 750 mmHg 55%
    20:00 +24°C° 0.1 mm 2 mps 750 mmHg 59%
    21:00 +21°C° 0.1 mm 2 mps 751 mmHg 62%
    22:00 +22°C° 0.1 mm 1 mps 751 mmHg 63%
    23:00 +22°C° 0.1 mm 1 mps 751 mmHg 65%

    26 July, Friday

    Time Temperature Precipitation Wind Pressure Humidity
    00:00 +19°C° 0.1 mm 0 mps 750 mmHg 66%
    01:00 +19°C° 0.1 mm 0 mps 750 mmHg 67%
    02:00 +19°C° 0.1 mm 0 mps 750 mmHg 68%
    03:00 +21°C° 0.1 mm 1 mps 750 mmHg 70%
    04:00 +21°C° 0.2 mm 1 mps 750 mmHg 72%
    05:00 +21°C° 0.2 mm 1 mps 750 mmHg 74%
    06:00 +21°C° 0.2 mm 1 mps 750 mmHg 77%
    07:00 +22°C° 0.1 mm 1 mps 750 mmHg 75%
    08:00 +23°C° 0.1 mm 1 mps 750 mmHg 73%
    09:00 +23°C° 0.1 mm 2 mps 750 mmHg 72%
    10:00 +25°C° 0.8 mm 2 mps 750 mmHg 65%
    11:00 +26°C° 0.8 mm 1 mps 750 mmHg 58%
    12:00 +28°C° 0.8 mm 1 mps 750 mmHg 51%
    13:00 +28°C° 0.1 mm 2 mps 750 mmHg 50%
    14:00 +28°C° 0.1 mm 2 mps 749 mmHg 50%
    15:00 +29°C° 0.1 mm 2 mps 749 mmHg 49%
    16:00 +28°C° 0.7 mm 3 mps 749 mmHg 55%
    17:00 +27°C° 0.7 mm 3 mps 749 mmHg 61%
    18:00 +26°C° 0.7 mm 4 mps 749 mmHg 68%
    19:00 +25°C° 0.7 mm 3 mps 749 mmHg 73%
    20:00 +22°C° 0.7 mm 3 mps 749 mmHg 78%
    21:00 +21°C° 0.7 mm 3 mps 749 mmHg 83%
    22:00 +21°C° 0.8 mm 3 mps 749 mmHg 86%
    23:00 +20°C° 0.8 mm 4 mps 749 mmHg 88%
    Show more